Find Starlink 30077

NORAD ID: 57460 Int'l Des: 2023-107 Owner: SPXS Country: US Constellation: starlink operational
LEOCIRCULAR

当前视图

正在加载3D地球...

About Starlink 30077

Starlink 30077 (NORAD 57460) is a starlink constellation satellite (v2 mini) launched Jul 28, 2023 by SPXS of US. It operates in LEO, CIRCULAR orbit with a mass of 730.00 kg.

关于 Starlink 30077

正在加载描述...

即将过境

Passes for default location (London). Set your location on the main map for personalized predictions.

高度历史

Loading altitude history...

两行轨道根数

1 57460U 23107D 26175.08854593 .00000269 00000-0 19272-4 0 9990
2 57460 43.0028 94.8651 0000499 266.4237 93.6558 15.27577837161428
Epoch: Jun 24, 2026 • Age: 15 hours

当前状态

高度 495.8 km
速度 7.62 km/s
星下点 -42.47°S, 161.07°W
发射日期 Jul 28, 2023
运行时间 2.9 years
类型 internet

技术详情

分类 Payload
质量 730.00 kg
干质量 700.00 kg
总质量 730.00 kg
长度 0.30 m
直径 4.10 m
跨度 29.00 m
形状 Box + pan
制造商 SPXS
平台类型 Starlink V2M
阶段状态 In Orbit
所有者/国家 SPXS/US

Most Searched